カタログに戻る

THOR ABLESTAR DEB

運用中LEO
NORAD 131·DEBRIS·🇺🇸 United States

打ち上げ Jun 29, 1961 から Cape Canaveral Space Force Station

Loading…

次のパス (今後24時間)

TLE

最新Source: Space-Track

元期: Sep 7, 2026, 12:13 UTC

1 00131U 61015R   26250.50940133  .00000052  00000-0  84371-4 0  9992
2 00131  66.7328 258.2848 0078660   6.6809 353.5303 14.01809492315001

AllMySatでTHOR ABLESTAR DEBをリアルタイム追跡

Download on the App Store